Theta_e
336 336 335 335 335 334 334 334 332 332 331 332 332 332 332 333 335 335 334 333 331 331 331 332 333 333 333 332 332 332 332 332 331 331 329 325 318 311 309 308 308 307 307 308 309 311 314 316 318 319 319 320 320 320 320 321 321 321 321 319 318 318 320 321 321 322 322 322 322 322 322 321 320 320 320 321 321 321 322 322 320 318 317 317 316
335 335 335 335 335 335 334 334 334 333 332 331 331 333 333 333 335 335 333 332 331 331 332 332 333 333 333 332 331 331 332 331 331 330 330 329 319 309 309 307 307 308 308 310 312 315 317 318 319 319 320 320 321 322 322 321 321 321 321 320 319 320 322 322 323 323 323 323 323 323 323 322 321 321 320 321 321 321 322 322 322 320 318 317 317
333 335 335 335 336 335 334 335 335 333 331 329 326 329 330 331 333 333 333 332 331 331 332 331 332 333 332 332 332 332 332 331 331 329 329 329 317 308 309 307 308 309 310 313 315 317 319 319 320 321 322 323 323 323 323 322 322 322 321 321 321 322 322 323 323 323 323 323 322 322 322 323 322 321 321 321 321 322 322 322 322 320 318 317 317
331 334 333 334 335 334 334 335 335 332 330 327 324 322 325 330 331 332 334 333 332 332 332 331 332 333 332 332 332 332 332 331 331 329 329 328 319 311 311 311 312 313 314 315 316 318 320 321 322 323 325 325 326 325 324 323 323 323 322 322 322 323 323 323 323 323 324 323 322 321 321 322 322 322 321 322 322 322 322 322 321 319 318 319 319
331 334 333 332 334 334 334 335 335 332 329 328 326 320 322 330 331 332 335 333 333 333 332 332 332 333 333 332 332 332 332 331 330 329 329 329 325 320 315 315 316 317 318 319 320 320 321 323 324 326 328 328 328 327 326 324 323 323 323 323 323 323 323 323 323 323 324 324 323 322 320 320 321 322 322 322 322 321 322 322 321 320 320 321 322
331 332 331 330 332 334 334 334 335 333 330 328 326 321 322 330 331 332 335 334 333 333 332 332 332 333 333 332 333 332 332 331 330 329 329 329 330 328 325 321 320 321 322 322 323 324 324 326 327 328 329 329 329 328 328 326 323 323 323 324 323 323 323 323 323 323 324 324 324 323 320 319 320 321 322 322 321 321 321 322 322 321 321 322 323
331 330 331 331 331 332 333 334 335 332 330 329 326 322 323 329 333 333 334 334 334 334 333 333 332 332 333 332 333 333 332 332 330 329 329 330 331 331 331 329 327 328 326 324 324 326 326 327 328 328 328 328 328 328 328 327 325 323 322 323 324 324 323 324 324 324 324 325 325 324 321 318 320 322 322 321 321 321 322 322 322 322 322 322 323
329 329 331 331 329 330 332 332 332 331 330 330 328 326 325 328 331 333 334 333 333 333 333 333 332 331 332 333 333 332 332 332 330 329 328 328 331 332 331 331 331 330 329 328 326 325 326 327 327 327 327 327 328 328 328 328 327 324 322 322 324 324 324 325 326 325 324 324 325 324 318 317 321 322 321 319 319 321 322 323 323 323 323 323 324
330 330 331 331 330 329 329 328 328 330 330 330 330 329 329 328 328 330 333 334 333 333 333 333 333 331 332 334 332 331 333 332 330 329 328 327 330 331 330 330 330 329 329 330 328 326 326 325 325 325 325 326 327 327 328 328 328 326 324 323 323 323 324 325 326 326 325 324 325 321 312 314 321 321 320 318 316 318 320 322 324 324 324 324 323
330 332 332 331 331 329 329 327 325 328 330 330 330 330 331 331 327 326 330 333 332 332 333 333 333 333 333 334 333 332 332 332 330 329 328 328 329 329 329 329 328 327 328 329 328 328 326 323 322 322 323 325 325 327 327 327 326 327 326 325 324 324 324 324 325 326 325 324 322 314 307 313 321 319 317 316 313 312 313 316 319 321 322 322 322
329 332 333 331 330 329 329 328 326 328 330 329 329 329 330 330 328 326 328 331 332 332 333 333 333 333 334 334 333 332 332 331 329 328 328 329 329 328 328 329 327 327 328 328 328 328 327 324 322 323 323 324 325 325 325 325 325 325 326 326 325 325 325 325 324 325 324 321 315 307 306 313 319 317 315 315 312 308 307 308 309 312 314 315 315
328 330 332 332 331 331 330 328 327 330 331 329 327 327 328 329 328 328 328 330 332 332 332 332 333 334 334 333 332 331 332 331 330 329 329 330 329 327 329 329 329 328 327 327 328 328 328 326 325 326 325 323 324 324 322 322 323 324 325 326 326 325 325 324 324 324 322 317 310 306 306 311 315 314 312 311 308 306 305 305 305 305 306 306 306
330 329 331 332 331 331 331 329 329 330 330 330 328 324 325 327 327 328 328 330 332 332 332 332 333 334 333 331 330 330 331 331 330 329 329 330 329 328 329 330 330 329 325 325 327 328 327 328 327 327 326 324 322 320 317 317 320 322 324 325 325 325 325 324 324 322 317 312 308 306 306 308 310 310 308 306 304 303 303 303 303 303 302 302 302
332 331 331 332 332 331 331 330 330 330 328 329 329 326 325 326 327 327 328 330 332 332 332 332 332 333 331 330 330 330 330 330 330 330 330 330 330 329 330 330 330 330 326 325 327 327 327 328 328 327 327 325 322 319 317 318 318 317 321 323 325 325 324 325 324 318 313 309 307 306 305 305 306 306 305 303 303 303 302 302 302 301 301 301 301
334 334 333 331 331 332 331 330 330 329 328 328 329 328 327 327 327 326 327 329 331 332 331 331 331 332 331 330 331 331 330 331 331 330 330 330 330 330 330 330 330 330 328 327 327 327 328 329 328 328 328 328 326 325 324 324 319 313 318 322 323 325 324 323 321 314 310 307 306 305 305 304 304 303 303 302 302 302 301 301 301 301 301 301 301
335 335 333 332 331 331 331 330 329 329 328 327 327 329 328 328 326 325 326 327 329 331 331 331 331 331 330 330 331 331 331 331 331 330 330 331 330 330 330 330 330 329 328 328 328 328 328 328 328 328 328 328 327 327 325 321 313 312 319 322 322 323 321 319 316 311 308 306 306 305 304 303 303 302 302 302 301 301 301 301 301 301 301 302 302
335 335 334 333 331 330 331 330 329 329 329 328 328 328 329 329 327 326 327 327 328 329 330 331 330 329 330 331 331 331 331 330 331 330 330 330 330 330 330 329 329 329 328 328 328 328 328 327 328 327 327 327 327 327 320 312 310 314 318 321 321 320 316 314 312 308 306 306 306 304 302 302 302 302 302 301 301 301 301 301 301 302 302 303 303
335 335 334 333 332 331 331 331 330 330 330 329 329 328 329 329 328 327 327 326 326 328 330 330 329 329 330 331 331 330 330 331 331 331 330 331 330 330 330 329 329 329 328 328 328 328 327 327 327 326 326 326 326 326 318 311 314 317 317 318 317 313 311 311 309 306 306 306 305 303 302 302 301 301 301 301 301 301 301 302 302 303 303 303 303
335 335 334 333 333 332 332 330 330 331 331 331 330 329 329 329 329 329 327 326 325 326 329 329 328 329 329 330 331 330 330 331 331 330 330 331 330 330 330 329 329 329 328 328 328 328 328 327 325 326 326 325 325 325 321 318 315 315 317 314 310 308 307 308 306 306 306 305 303 302 302 302 301 301 301 301 301 301 301 302 302 303 303 303 303
333 334 333 332 331 332 332 331 330 331 332 332 331 330 329 329 330 330 329 328 326 325 327 327 328 328 328 330 331 330 330 330 330 330 330 331 331 330 330 329 329 330 329 328 329 329 328 327 326 327 327 326 325 324 323 322 314 311 317 312 306 306 306 306 306 306 306 303 302 302 302 301 301 301 301 301 301 301 302 302 302 303 303 303 303
331 332 333 332 331 331 331 331 331 331 332 332 332 331 330 329 330 330 329 329 328 327 326 327 328 328 329 330 330 329 330 330 329 330 331 331 331 330 329 330 329 329 329 329 330 329 328 327 326 327 327 326 326 323 323 323 314 307 312 310 305 307 306 306 307 306 304 302 302 302 301 301 301 301 301 301 302 302 302 302 302 303 303 303 303
331 332 332 332 331 330 330 331 331 331 331 332 331 330 330 331 330 330 330 329 329 328 327 327 328 329 328 330 330 330 330 330 330 331 332 330 330 329 329 330 329 329 329 330 330 330 329 328 327 327 327 325 325 323 322 323 315 306 307 307 306 306 306 306 306 304 303 302 302 302 301 301 301 301 301 302 302 302 302 302 302 303 303 303 304
332 332 332 332 331 330 330 331 330 329 329 330 330 330 330 331 330 329 329 330 330 329 328 329 329 329 328 328 330 330 329 330 330 330 331 331 331 331 329 330 329 328 329 330 330 330 329 328 327 327 327 325 325 324 322 323 319 310 306 307 306 306 307 307 305 303 302 302 302 302 301 302 301 301 302 302 302 302 302 302 302 303 303 304 306
332 332 332 333 332 331 331 331 330 328 328 329 330 331 331 330 329 327 326 329 330 330 329 329 328 329 328 328 329 330 330 331 329 330 331 329 329 331 331 330 330 329 330 330 330 330 330 329 328 327 327 326 325 324 322 321 318 310 306 307 306 306 307 306 304 302 302 302 302 302 302 302 302 302 302 302 302 302 302 302 302 303 304 307 309
334 333 332 332 332 331 330 330 330 329 330 330 331 331 331 331 329 327 326 328 330 330 329 329 328 327 326 327 328 329 330 331 329 329 331 329 328 330 331 330 330 330 330 330 329 330 330 329 328 328 327 326 324 323 322 321 315 308 306 306 306 307 307 306 304 302 302 303 302 302 302 302 302 302 302 302 302 302 302 302 303 304 307 309 311
333 332 332 332 331 331 330 330 330 330 331 331 332 331 331 331 330 329 328 328 330 331 330 328 327 327 326 326 327 328 329 330 330 330 330 330 329 329 329 329 329 329 330 330 329 330 330 329 328 328 327 326 324 323 322 320 314 307 305 306 306 307 307 306 303 302 302 303 302 302 302 302 302 302 302 302 302 302 302 303 305 307 309 311 312
331 331 331 330 331 330 330 330 330 331 331 332 332 331 331 331 331 331 330 330 331 331 330 329 327 328 328 326 326 327 329 330 330 330 330 330 330 330 329 328 328 328 329 329 329 329 329 328 328 327 327 326 324 323 322 318 314 307 305 306 307 307 307 306 303 302 303 303 303 303 302 302 302 302 302 302 302 302 302 304 307 309 311 312 312
331 331 330 329 330 331 331 330 331 331 331 332 332 331 331 331 331 331 330 331 331 330 330 330 328 327 327 326 324 325 328 330 329 329 330 331 330 330 329 329 329 328 328 329 329 328 328 328 327 327 327 326 325 323 320 317 313 308 305 306 307 307 307 306 304 303 303 303 303 303 303 303 303 302 302 302 302 302 304 307 309 311 312 312 313
331 331 329 328 329 330 330 331 331 330 330 331 332 332 332 331 330 331 330 330 330 330 330 330 328 327 326 326 324 324 328 330 328 328 330 330 330 329 329 329 329 329 329 329 329 329 328 327 327 327 327 327 325 323 320 316 312 307 305 306 306 307 307 306 304 303 303 304 304 304 304 303 303 303 302 302 302 303 306 309 311 312 312 312 313
331 330 329 328 328 329 330 330 330 330 330 331 332 332 331 331 330 331 331 330 330 330 329 329 328 328 328 327 325 326 329 330 328 327 328 329 330 330 329 329 329 329 329 329 329 329 328 327 327 327 327 326 325 323 320 316 312 306 305 307 307 307 307 306 304 303 303 304 305 305 304 303 303 303 303 303 303 305 308 310 311 312 312 312 312
331 330 329 329 329 330 330 329 329 330 330 331 332 331 331 331 331 331 331 331 330 329 328 328 329 328 329 328 326 327 331 330 328 327 327 329 330 330 329 329 329 328 329 330 330 329 328 327 327 327 327 326 325 323 320 317 313 307 305 307 309 309 307 306 305 302 303 305 305 306 305 304 304 303 303 303 304 307 309 311 312 312 312 312 312
331 330 330 330 329 329 330 330 331 331 330 330 331 331 331 330 330 330 331 331 330 328 327 327 328 328 329 329 326 328 331 330 327 327 327 328 330 330 329 330 329 329 329 330 329 329 327 327 327 327 327 326 325 324 321 317 313 308 305 308 311 311 308 306 305 303 303 304 305 306 306 305 304 304 304 304 305 308 310 311 312 312 312 312 312
331 331 330 330 329 329 329 330 330 330 329 330 331 331 331 330 330 330 330 331 330 328 326 327 327 327 328 328 326 328 331 330 327 327 326 327 329 329 329 329 329 329 329 328 327 327 326 326 327 327 326 326 325 324 321 318 315 310 308 311 311 309 309 307 305 304 303 304 305 306 307 306 306 305 304 305 306 309 311 312 312 312 312 312 312
330 330 330 330 330 330 329 328 329 329 329 331 331 331 331 330 330 330 330 330 330 329 328 329 328 327 327 328 327 328 330 329 327 326 326 327 328 328 329 329 329 329 329 328 327 327 326 326 328 327 326 326 326 325 321 319 318 312 309 313 312 308 308 308 306 305 303 304 304 305 306 307 307 306 306 306 306 309 312 312 312 312 312 312 312
328 329 329 330 329 330 330 329 329 329 329 330 330 330 330 330 330 330 329 329 329 329 330 330 328 328 328 328 328 329 329 328 327 326 326 327 328 329 330 329 329 329 329 329 328 327 326 326 327 327 326 326 325 325 321 320 321 316 310 313 315 312 311 310 308 307 304 304 305 305 305 306 306 307 307 307 306 308 311 312 312 312 312 312 312
327 327 328 329 329 330 330 329 329 329 329 329 329 329 329 329 330 330 329 328 328 328 328 327 326 327 329 329 328 329 328 328 328 326 326 327 328 329 330 329 329 329 329 329 327 327 326 326 326 325 326 326 325 324 322 319 321 319 312 312 315 315 314 311 310 310 308 306 306 305 305 305 305 306 307 308 308 307 309 311 312 312 312 312 312
326 326 327 328 329 329 329 330 330 330 330 330 330 330 329 328 328 328 328 328 327 327 327 326 326 328 329 328 328 328 328 329 328 326 327 328 328 329 329 328 329 328 328 328 328 327 327 326 325 324 324 326 324 322 321 319 320 320 315 312 314 315 315 313 311 312 311 310 308 307 306 306 306 305 306 307 308 308 308 309 310 311 312 312 312
322 324 325 327 328 329 329 330 329 329 330 330 329 329 329 328 327 326 327 327 327 326 326 326 328 329 329 329 329 329 328 328 328 327 327 328 329 329 328 327 328 327 327 328 328 328 327 326 326 323 322 324 322 320 320 319 319 320 317 314 314 314 314 313 312 311 312 311 309 307 307 307 306 306 306 306 307 308 308 309 309 310 311 311 311
319 321 323 325 327 328 328 329 329 329 329 329 329 328 328 328 327 326 325 325 324 324 324 326 328 329 329 329 330 329 328 328 329 328 328 328 328 328 327 327 327 327 327 327 327 327 327 326 326 324 321 322 320 319 319 319 318 319 317 315 315 315 315 314 313 312 312 311 310 308 307 307 307 308 307 307 307 307 308 308 308 309 309 310 310
318 320 322 324 326 327 328 328 329 329 329 329 329 328 328 328 327 325 325 325 324 323 323 325 327 328 328 328 328 329 328 328 329 328 327 328 328 327 326 326 326 326 327 327 327 327 326 326 326 325 321 320 319 318 318 318 317 318 317 316 316 316 316 316 314 313 313 312 310 309 308 308 308 308 308 309 309 308 308 308 308 309 309 309 310
317 319 321 324 325 326 327 327 328 328 328 328 328 328 328 328 327 326 326 327 326 326 326 327 327 327 328 328 328 329 329 328 328 327 327 327 327 326 325 325 325 326 327 326 327 328 327 326 327 326 323 321 320 318 318 318 317 317 317 316 316 316 316 316 316 315 315 314 313 312 311 310 309 309 309 309 309 310 310 310 310 310 311 311 311
317 318 320 323 325 325 326 327 328 328 328 328 328 327 327 327 327 326 327 327 326 326 326 327 327 327 327 327 326 328 329 328 327 327 326 325 326 325 324 323 324 327 328 327 327 328 327 326 326 326 325 323 322 320 319 318 317 317 317 317 316 316 316 316 316 316 316 315 315 315 314 313 312 311 310 310 310 311 311 311 312 312 312 312 312
316 318 320 322 323 324 325 326 327 327 328 328 328 327 327 327 326 326 326 325 325 324 325 328 328 326 326 325 325 327 328 327 326 325 325 325 325 325 324 323 324 327 328 327 328 328 326 325 326 327 326 325 324 322 321 320 319 318 317 317 317 317 317 317 316 317 316 316 316 316 316 315 314 313 312 311 312 312 313 313 313 313 313 312 312
312 314 316 319 321 322 323 324 324 325 326 327 327 327 327 327 326 327 326 325 325 325 325 328 328 327 326 326 327 328 327 325 325 324 324 324 324 325 325 323 324 327 328 328 328 328 326 325 326 327 326 325 325 324 323 322 321 319 318 318 318 318 317 317 317 317 317 316 316 316 316 315 315 315 314 314 314 314 314 314 315 315 315 314 314
309 310 312 314 316 318 320 321 321 322 324 325 326 327 328 327 327 327 327 325 325 326 326 327 328 327 326 327 328 328 326 325 325 325 324 323 324 325 326 325 325 327 327 328 328 328 327 326 325 325 325 325 325 325 325 324 322 321 320 319 319 319 319 318 318 318 318 318 317 316 316 315 315 316 316 316 315 315 315 316 316 316 317 316 315
306 307 308 309 311 313 314 316 317 319 321 323 324 325 327 327 327 327 327 326 326 326 327 327 327 327 326 325 325 326 325 325 324 323 323 324 325 326 327 328 327 327 327 327 327 327 327 326 325 324 324 324 324 324 324 323 323 322 322 321 320 320 321 321 319 318 319 319 317 316 315 315 316 317 317 316 315 316 317 317 317 318 318 317 316
305 305 305 306 307 308 309 311 313 315 317 320 323 324 325 326 326 327 327 327 327 327 326 326 327 328 327 325 324 323 324 325 324 323 324 325 325 325 327 328 328 328 328 327 327 327 326 326 325 325 325 324 324 323 323 322 323 324 323 323 322 322 323 323 321 318 318 319 318 317 317 316 316 318 318 317 317 318 319 319 319 318 317 316 314
305 305 304 304 305 306 307 308 309 310 312 315 318 321 323 324 325 326 326 326 327 327 327 326 326 326 327 327 325 324 325 326 326 325 325 325 326 326 327 328 328 328 328 327 326 326 326 325 325 325 325 325 324 323 323 322 323 324 324 323 323 324 323 322 321 319 319 319 318 317 317 317 316 318 319 319 319 319 320 320 319 317 315 314 313
305 305 304 304 304 304 305 305 306 307 308 310 313 317 320 322 324 325 325 326 326 326 327 327 325 324 324 325 325 324 325 326 326 325 325 326 327 327 328 328 328 328 327 326 326 325 325 325 325 325 325 325 323 322 323 323 324 324 324 323 324 323 322 322 321 320 320 320 318 316 317 318 319 319 320 319 319 319 318 316 315 313 313 312 312
303 304 304 304 304 303 303 304 304 306 307 308 309 312 315 318 321 323 324 325 326 326 326 326 325 323 322 322 322 322 324 326 325 325 326 326 326 327 328 327 327 327 326 325 325 325 325 325 325 325 325 325 324 323 324 325 324 324 323 323 322 321 322 321 319 318 319 320 318 315 316 319 320 320 320 319 317 315 313 312 312 313 313 312 311
303 303 303 303 303 303 303 302 303 304 305 306 307 309 311 314 317 320 322 323 325 325 325 326 326 325 323 323 323 323 324 324 323 324 326 326 326 326 326 326 326 326 325 325 325 324 324 324 324 325 325 324 324 324 323 323 323 323 322 322 321 321 320 319 317 317 319 319 318 315 315 318 319 318 318 317 314 311 310 311 312 312 312 311 309
Wind_Speed
12 12 12 13 12 12 13 12 12 11 12 12 11 12 12 11 10 9 9 8 9 8 7 7 7 7 7 7 7 7 7 6 7 5 1 3 6 6 6 7 7 8 8 9 9 9 9 9 8 7 7 7 7 7 7 7 8 8 9 9 10 10 10 11 11 11 11 12 12 11 11 11 11 12 12 13 13 14 14 15 15 17 18 19 21
10 10 12 12 12 12 12 11 12 12 12 12 11 13 13 13 13 12 11 9 9 9 8 7 7 7 7 6 6 6 6 6 6 6 5 4 5 3 4 6 6 8 8 9 9 9 8 8 7 7 7 7 7 7 7 7 7 8 8 9 9 9 10 10 10 11 11 12 12 11 10 10 10 11 11 12 13 13 14 14 15 16 18 18 19
11 10 10 9 10 11 11 10 11 11 12 13 12 13 13 13 14 13 11 10 10 9 9 8 7 7 7 6 6 6 5 6 6 6 6 6 5 2 3 4 5 6 6 7 8 8 8 7 7 6 7 7 7 7 7 7 7 8 8 8 8 8 9 10 10 11 11 12 12 12 11 10 10 10 11 12 12 13 13 14 15 16 18 18 18
12 12 11 9 9 10 10 10 10 11 12 12 13 14 13 13 14 12 11 11 10 10 9 8 8 7 7 7 6 7 6 6 6 6 7 5 3 4 4 4 4 4 4 5 5 6 7 6 7 7 6 6 7 7 7 8 8 8 7 7 7 8 8 9 10 11 11 11 12 13 12 11 10 10 11 11 12 13 14 15 16 17 18 18 18
11 14 13 11 10 7 7 8 9 10 12 13 14 15 14 13 14 12 11 11 10 10 9 9 9 8 7 7 6 7 7 7 7 7 7 7 5 4 6 7 6 5 5 4 4 5 6 6 6 6 5 4 4 5 6 7 7 7 7 6 6 7 8 8 10 10 10 10 11 12 12 11 11 11 11 11 12 13 14 15 16 17 17 17 17
10 12 13 12 10 8 7 7 9 11 13 13 13 15 15 13 13 12 12 11 10 11 10 10 10 9 9 8 7 7 8 8 8 8 8 9 9 6 6 7 7 6 5 5 4 5 5 5 5 5 5 4 3 3 4 5 7 7 7 6 6 6 6 7 9 9 9 9 10 10 10 10 10 11 11 12 12 13 14 14 14 15 15 16 16
10 12 14 13 11 8 6 6 9 13 12 12 13 16 17 15 13 12 13 12 11 12 11 11 11 10 9 8 8 8 8 8 9 9 8 9 10 9 7 7 6 5 5 5 5 6 5 4 4 4 5 4 3 3 3 4 5 6 6 5 5 5 4 5 7 8 9 8 8 8 9 9 10 11 11 12 12 12 13 13 13 13 13 14 15
11 13 14 14 13 9 8 7 9 12 11 12 14 15 17 17 16 14 13 13 13 13 12 11 12 11 10 9 9 10 9 9 9 9 9 9 9 10 10 9 7 6 6 5 6 7 5 5 5 4 4 4 4 4 4 5 5 4 5 5 4 4 3 3 5 7 7 6 6 6 7 8 9 10 11 11 11 11 12 13 13 12 12 13 14
11 14 14 15 14 11 11 11 11 13 12 13 13 13 15 17 18 17 15 15 15 14 13 12 12 12 11 10 10 10 9 9 9 9 10 9 9 10 11 10 9 7 6 5 6 7 6 5 5 4 3 4 4 5 5 5 5 4 3 3 3 3 3 3 4 4 5 5 5 5 6 7 9 9 9 10 10 10 11 12 12 13 13 13 13
12 14 15 15 14 13 12 13 14 15 14 14 13 13 14 16 19 19 18 18 17 15 14 13 12 11 11 10 11 10 10 11 10 10 11 10 10 10 10 10 9 8 8 7 6 6 6 5 4 4 4 4 4 5 6 6 5 5 3 3 2 2 3 3 3 3 4 5 5 5 5 6 8 8 8 8 8 8 9 9 10 10 11 11 10
12 13 15 15 15 14 14 15 16 16 17 15 14 15 16 17 18 19 21 20 17 15 14 13 12 11 11 11 12 12 11 11 11 10 11 11 11 11 11 11 10 9 8 7 6 6 6 6 5 4 4 4 5 5 5 5 5 5 5 4 4 3 3 3 3 3 5 6 6 5 5 6 8 8 7 6 6 7 7 8 8 8 9 9 8
13 14 15 16 15 15 16 17 16 17 18 17 16 16 16 18 18 20 22 20 18 17 15 14 12 12 13 14 14 13 13 12 11 12 12 12 12 12 12 11 10 10 10 8 7 7 7 6 6 6 5 5 6 6 4 4 4 4 5 5 4 4 4 4 4 5 6 7 6 5 5 7 8 7 6 5 5 6 7 7 7 7 8 8 9
15 15 16 17 16 16 17 18 17 18 19 18 18 18 17 18 19 20 21 19 18 17 16 16 14 13 15 16 15 14 14 14 13 14 14 13 13 12 11 10 10 10 10 9 8 7 7 7 7 7 7 6 6 6 5 4 4 3 4 5 5 5 6 5 6 6 6 6 5 5 5 7 7 6 5 5 6 6 7 7 7 7 8 9 9
15 16 17 17 17 17 18 18 18 19 20 19 19 18 19 21 20 21 22 21 20 18 18 19 18 17 16 15 13 13 15 16 15 15 14 13 13 12 12 11 10 10 10 9 8 8 7 8 8 8 8 8 7 6 5 4 4 4 3 5 6 7 7 8 7 6 6 5 4 4 5 6 6 6 6 6 6 6 7 7 7 8 9 10 10
14 15 17 18 17 17 18 19 20 20 21 20 19 18 20 22 22 21 23 24 22 19 20 21 19 16 15 14 13 14 16 17 16 15 14 14 13 12 12 11 11 11 10 9 9 9 8 8 8 8 9 9 6 5 6 5 4 4 5 6 8 9 9 9 8 6 5 4 4 5 5 5 6 6 7 7 7 7 7 8 8 9 10 11 12
13 14 16 18 18 18 19 21 22 23 23 22 22 21 20 22 22 22 25 25 21 20 21 22 19 17 16 15 14 15 17 18 17 17 16 15 14 13 12 12 12 12 11 10 11 11 10 10 9 9 10 9 7 7 6 5 4 5 6 7 9 10 9 8 7 5 4 4 4 5 5 5 6 6 7 7 7 8 9 10 11 12 13 14 15
13 14 16 18 18 19 20 22 24 24 24 23 23 23 22 22 22 23 26 26 23 20 21 22 22 20 18 16 14 15 18 18 17 18 18 18 16 15 13 13 14 13 12 11 12 12 11 11 11 10 10 9 8 8 7 6 6 7 7 7 9 9 8 8 6 5 5 4 5 5 5 5 6 7 7 8 9 10 11 12 14 14 15 15 15
14 15 17 18 19 19 20 23 24 24 24 25 25 25 24 25 24 24 26 27 25 22 21 21 21 23 22 19 17 16 16 17 18 18 19 19 17 16 16 15 15 14 13 13 13 13 12 12 12 11 11 10 10 9 7 7 9 9 9 8 8 7 7 7 6 6 5 5 5 5 5 6 7 7 8 9 10 12 13 14 15 15 15 15 14
14 16 17 17 18 19 20 22 24 24 24 25 27 27 26 27 27 26 26 26 26 25 25 23 21 23 26 25 23 20 15 15 18 19 20 20 17 16 18 16 16 15 14 14 14 14 13 13 13 12 12 11 11 10 7 8 10 10 10 9 8 7 8 7 7 7 6 6 6 5 6 7 8 9 10 11 12 14 15 15 16 15 15 14 13
15 17 17 18 19 20 20 21 23 25 25 26 28 28 28 29 29 29 27 27 26 26 28 27 24 24 26 30 30 25 19 16 18 20 19 20 18 18 18 17 17 16 15 14 14 14 15 14 14 14 13 12 12 11 9 9 10 10 11 9 9 8 8 8 8 7 7 7 6 6 7 8 9 10 11 13 14 15 15 16 15 14 13 13 12
16 17 18 18 19 19 20 21 22 24 25 25 25 27 29 30 31 31 30 29 27 26 28 28 27 25 25 30 31 26 20 17 19 20 17 19 20 22 21 18 18 19 16 15 15 15 16 15 14 14 13 13 13 11 11 11 11 11 12 10 10 9 9 9 8 8 8 7 7 8 8 9 10 11 13 14 15 15 16 15 14 13 12 12 12
16 16 17 18 18 18 19 19 20 21 23 23 23 25 28 30 31 31 31 31 29 29 30 28 29 28 25 26 28 27 23 19 20 21 19 19 19 21 25 24 22 22 20 18 17 16 16 16 15 14 14 14 13 12 12 12 11 12 12 11 10 10 10 9 9 9 9 9 9 9 10 10 11 12 14 14 15 15 15 14 13 12 12 12 12
17 17 17 18 17 18 18 19 20 21 22 22 23 24 27 30 30 29 31 32 32 32 32 30 29 30 28 26 27 30 29 24 23 23 21 20 16 17 24 25 23 23 22 21 19 17 17 16 16 16 15 14 14 13 13 13 12 13 13 13 12 11 11 10 10 10 10 10 10 11 11 11 12 13 14 14 14 14 14 13 13 12 12 12 12
18 18 18 18 18 19 19 20 21 23 23 23 23 24 26 28 30 30 30 32 34 35 34 33 31 30 29 28 27 29 29 26 26 24 22 23 19 17 22 24 22 21 21 22 21 18 18 18 17 16 16 15 14 14 14 15 16 14 14 14 13 13 12 11 11 12 11 11 12 12 12 12 13 14 14 14 14 14 13 13 12 12 12 12 12
17 20 21 20 20 21 21 21 21 21 22 22 23 25 26 28 30 31 31 31 34 35 35 34 32 30 31 30 29 28 27 27 27 22 19 23 21 19 23 25 23 21 20 22 22 20 18 18 18 17 16 16 15 15 16 17 16 14 14 15 14 14 13 12 12 13 12 12 13 13 13 13 14 14 14 14 14 13 13 13 12 12 12 12 13
18 20 22 22 23 23 22 22 22 20 20 21 22 25 26 27 30 31 30 31 33 33 34 33 31 30 31 31 30 28 26 26 26 21 19 22 23 22 23 23 22 21 20 21 21 21 20 20 19 18 17 16 16 17 18 17 15 15 16 16 15 15 14 14 14 14 14 13 14 13 14 14 14 14 14 14 14 13 13 13 13 12 12 12 13
19 20 20 22 23 24 23 23 22 21 21 21 22 24 26 27 29 29 28 30 30 31 32 32 31 31 31 31 30 29 27 27 26 23 20 20 22 23 22 23 23 21 20 20 21 22 22 21 20 19 18 18 17 18 19 17 16 16 17 16 16 16 15 15 15 15 15 14 14 14 14 14 14 14 14 14 14 14 14 14 13 12 12 12 12
18 21 21 22 23 23 23 23 22 21 21 23 23 25 25 26 27 27 28 29 29 30 32 32 31 30 30 30 29 30 30 27 26 25 22 18 20 22 21 22 23 21 20 19 20 22 21 20 21 20 19 18 19 19 19 19 18 17 18 17 17 17 16 16 16 16 16 15 15 15 14 14 14 14 14 14 14 14 15 14 13 13 13 13 13
18 20 21 22 23 23 22 23 23 21 22 24 25 25 26 27 27 26 27 29 29 31 32 31 30 28 28 29 29 29 28 26 26 27 24 20 20 22 22 22 22 20 21 20 19 20 20 20 20 20 20 19 19 19 18 19 18 17 18 18 18 17 16 17 17 17 17 16 15 15 14 14 14 14 15 15 15 15 15 14 14 14 14 13 13
18 19 20 21 22 22 22 22 22 21 22 24 25 25 26 28 28 27 27 28 30 31 32 30 29 28 28 29 28 27 28 28 27 26 26 25 24 24 23 23 23 21 20 20 19 18 20 20 19 19 20 20 19 18 18 19 18 17 19 19 18 18 17 17 18 17 17 16 16 15 15 15 14 15 15 16 16 16 15 14 14 15 15 14 13
19 20 21 21 21 21 21 20 19 20 21 22 23 25 26 27 29 29 28 28 30 31 31 29 28 28 28 29 29 26 27 29 28 26 28 29 27 25 24 23 24 22 19 18 18 17 20 22 19 18 21 21 19 17 17 19 18 17 19 19 18 18 17 18 19 18 18 17 16 16 15 15 15 15 16 16 17 16 15 15 15 15 15 15 14
18 20 20 19 21 21 20 18 18 19 20 21 23 24 26 27 29 31 30 29 31 32 31 29 28 28 26 28 30 27 26 29 30 28 28 31 29 26 26 24 24 24 22 20 20 19 22 23 21 19 20 20 20 18 17 19 20 18 19 19 19 19 19 19 20 20 19 18 17 17 16 16 16 16 17 17 17 17 16 16 15 16 16 16 15
16 19 20 20 21 21 20 19 19 20 21 22 22 23 25 27 29 30 30 31 32 33 31 29 29 28 27 29 30 29 28 30 31 29 28 30 31 27 26 26 25 25 24 23 23 21 22 23 20 20 21 21 21 19 17 19 20 19 19 19 21 22 19 19 21 21 21 20 19 18 16 16 16 16 17 17 17 17 16 16 16 16 16 16 16
18 18 20 21 20 20 20 20 19 20 21 21 21 22 25 27 28 29 29 30 30 29 27 27 28 29 29 29 29 30 31 30 31 32 29 30 31 28 27 27 25 25 24 22 22 21 22 22 19 19 21 22 22 20 19 20 21 20 20 20 21 22 20 19 20 21 22 20 19 19 17 16 16 16 16 17 17 18 17 17 17 17 17 16 16
20 18 18 21 21 20 20 20 19 19 20 21 22 23 23 25 27 29 29 29 27 26 26 26 27 29 29 30 30 31 31 30 32 33 30 30 30 29 29 28 25 23 22 21 22 21 21 22 19 19 21 22 23 21 20 20 19 19 21 21 19 19 19 19 19 20 21 20 19 19 18 17 16 16 16 16 17 18 18 17 17 17 17 16 16
24 21 17 19 22 22 22 21 20 19 20 21 22 22 23 23 24 27 28 27 26 25 25 24 27 29 30 30 30 30 31 31 32 33 32 31 30 28 29 26 23 22 21 22 24 23 22 21 19 19 21 22 23 21 20 20 19 17 20 21 19 17 18 19 18 18 19 19 18 18 18 18 17 17 17 17 17 18 18 18 17 17 17 17 16
25 25 21 19 21 23 22 22 21 19 18 20 21 22 23 22 23 25 25 25 25 24 23 24 27 28 27 29 30 31 31 30 30 30 31 31 31 30 29 27 24 23 22 23 25 25 24 23 20 19 21 22 21 21 20 21 20 18 18 20 20 19 18 18 18 18 19 18 18 19 19 18 18 18 18 18 18 18 18 18 18 18 17 17 16
21 23 23 21 20 22 22 21 21 19 19 20 21 23 23 22 24 25 25 26 26 24 23 25 27 26 25 27 30 31 30 29 30 31 31 31 31 31 31 29 26 25 25 25 26 25 24 24 21 20 21 21 20 20 20 21 21 19 19 19 19 19 19 19 18 18 21 21 20 20 20 20 20 20 19 19 19 18 19 18 18 18 17 17 17
18 19 21 22 20 20 21 21 21 19 20 21 21 22 22 22 24 25 25 27 27 26 26 26 27 27 26 27 30 31 29 29 32 33 32 32 32 31 31 30 29 29 28 27 26 24 24 25 24 21 21 20 21 21 20 20 20 19 19 20 19 19 19 19 18 18 20 22 22 21 21 21 20 20 19 19 19 20 20 19 19 18 18 17 17
18 18 19 20 20 20 20 21 22 21 20 22 22 22 21 22 25 27 26 26 27 28 28 29 28 27 26 27 27 27 27 28 31 31 30 31 32 31 31 30 30 31 30 29 27 24 24 26 25 23 21 20 21 22 20 21 21 20 19 19 19 19 18 18 19 18 18 20 21 21 21 21 21 20 19 20 20 21 21 20 19 19 18 18 18
19 18 18 18 18 18 18 19 22 21 20 22 23 22 21 23 26 27 26 25 25 26 28 28 28 28 27 26 25 25 26 28 28 28 29 30 31 32 32 30 30 31 30 31 31 28 27 26 23 23 22 21 22 22 21 22 22 20 19 19 19 19 18 18 18 19 18 18 18 18 19 21 21 21 21 21 21 20 20 19 19 18 18 18 19
18 18 18 17 17 17 17 18 19 18 17 20 21 20 21 21 23 25 25 24 24 25 26 27 28 27 27 26 26 27 28 28 27 27 28 29 30 30 31 31 32 31 30 32 31 29 30 28 24 24 24 22 22 23 23 22 21 21 20 19 19 18 18 19 19 20 20 18 17 17 17 18 18 19 20 21 19 18 18 18 19 18 19 20 21
19 17 16 16 16 16 16 17 18 16 16 18 19 20 21 21 24 27 26 24 24 24 25 25 26 27 27 27 27 29 29 28 28 28 28 29 30 30 30 32 33 31 30 30 28 27 30 28 25 26 26 25 23 22 22 21 20 21 21 20 20 19 19 20 20 21 21 21 19 17 17 17 17 16 17 17 16 17 18 19 19 19 20 21 20
23 20 17 16 15 15 15 15 15 15 16 18 18 19 21 22 24 27 25 23 23 24 25 25 24 25 26 27 27 28 29 28 29 29 29 30 30 29 30 32 32 31 30 28 26 25 27 28 27 27 27 27 25 22 22 22 21 22 22 21 21 21 20 20 20 19 20 21 22 19 17 17 17 15 14 14 15 18 19 19 19 19 19 19 18
27 27 24 20 17 17 16 16 15 14 14 17 18 19 21 23 24 24 23 23 23 24 25 25 23 22 22 23 26 28 29 29 29 29 30 31 30 30 32 33 33 33 32 29 28 27 26 27 28 28 27 27 27 26 26 26 24 23 24 24 23 22 21 21 21 19 17 18 22 22 19 18 17 17 16 13 15 18 18 18 19 19 19 19 18
25 29 30 28 24 21 20 18 17 16 14 15 17 17 19 21 23 23 23 24 24 24 23 22 21 22 21 22 24 26 28 30 31 31 31 32 32 33 34 34 33 33 32 31 30 28 28 27 27 27 26 25 27 28 27 28 28 27 27 27 24 22 23 23 23 21 18 17 20 21 19 18 19 18 16 15 18 21 20 20 21 21 20 19 19
22 24 27 32 32 29 26 23 21 19 17 16 17 18 19 20 22 23 23 24 26 25 23 21 21 23 23 23 24 25 27 30 32 33 32 32 33 34 35 34 31 29 29 30 30 29 29 28 27 26 25 23 23 25 25 27 30 29 28 27 24 23 23 22 22 22 20 20 21 20 17 17 18 16 15 18 22 24 22 20 20 20 18 18 19
21 19 21 27 32 33 32 29 26 25 22 19 18 20 22 21 21 22 23 24 25 25 24 23 23 22 22 23 23 24 28 31 31 32 32 32 32 33 34 32 28 27 29 30 29 29 29 29 28 28 27 24 22 23 23 25 29 30 28 27 25 24 21 19 22 23 20 20 23 23 18 16 18 17 14 14 16 17 18 18 16 16 16 17 19
21 20 20 21 24 29 34 34 31 30 27 25 21 18 20 22 20 20 22 24 24 24 23 23 23 23 21 22 22 24 28 29 27 27 30 31 31 29 29 28 26 27 29 29 29 29 28 28 28 28 27 26 24 23 22 23 26 28 28 30 28 24 20 21 22 20 17 20 26 28 22 15 16 18 14 11 11 10 12 13 12 13 15 16 18
22 21 21 19 19 24 30 33 34 33 31 29 26 21 19 19 19 19 20 22 24 24 23 23 23 22 22 22 23 24 25 24 22 22 24 27 28 26 25 25 24 24 28 29 28 27 26 26 26 26 26 26 25 25 23 22 23 24 25 27 27 26 26 26 21 16 17 22 26 27 23 14 13 17 18 16 14 9 8 8 8 10 14 16 17
23 22 22 21 20 21 24 27 31 34 34 33 30 27 22 19 17 17 17 19 21 22 22 22 22 21 19 21 26 28 25 20 19 21 21 23 27 27 24 24 23 23 26 25 24 23 23 23 24 24 24 24 24 24 23 21 21 22 22 21 21 24 28 28 23 19 19 21 21 21 21 18 16 16 17 16 12 7 6 7 8 11 12 13 14
Wind_Direction
215 211 205 192 192 186 179 176 173 181 189 195 186 184 194 187 190 197 193 191 180 177 176 174 166 159 155 143 149 149 144 146 144 151 189 254 225 201 206 207 192 180 169 158 147 140 132 127 123 114 102 88 79 72 67 64 65 67 70 75 80 83 82 77 73 71 70 68 68 69 69 69 71 72 72 71 70 70 71 74 79 84 86 87 87
225 226 219 193 188 191 183 177 177 183 196 204 191 187 195 190 191 190 187 195 188 182 182 182 178 168 163 156 158 150 147 145 144 149 150 211 232 195 208 212 194 183 168 156 146 138 134 129 122 110 97 84 75 69 66 66 68 69 73 79 83 84 79 74 70 69 67 67 69 69 70 71 72 73 73 71 70 69 72 76 78 84 88 88 89
224 226 224 200 192 192 181 177 184 192 203 215 206 194 197 195 193 185 184 197 193 187 188 189 188 183 179 170 163 158 157 151 150 151 159 210 242 158 183 199 185 183 168 158 150 143 139 130 121 109 99 91 82 76 72 72 73 73 76 80 83 82 78 74 70 68 66 66 68 68 68 70 72 73 74 74 74 73 74 77 80 85 89 89 88
228 223 221 216 214 202 184 180 191 205 215 224 221 211 204 198 196 191 191 196 193 192 193 194 192 191 189 181 176 166 158 160 160 154 156 186 211 152 148 151 155 161 158 157 156 151 145 137 128 117 108 101 91 85 82 79 78 78 79 81 82 81 78 75 72 68 68 68 68 66 66 69 73 75 76 77 78 78 78 79 83 89 91 90 88
240 233 229 231 234 218 193 193 201 215 225 227 229 226 215 203 200 200 199 197 194 197 196 199 198 190 189 192 187 167 161 173 167 161 169 169 178 181 155 149 150 151 157 159 164 166 156 151 142 135 131 122 111 99 92 87 85 85 84 84 82 80 77 76 75 72 70 70 68 64 65 69 74 76 77 78 80 81 83 84 87 92 93 91 88
243 243 238 237 242 231 204 204 213 224 231 228 227 227 221 212 208 206 205 201 199 204 201 201 205 197 198 200 191 177 171 180 171 168 188 181 179 197 177 163 165 168 179 179 182 186 178 172 162 160 160 156 156 134 115 103 95 94 93 90 86 84 82 81 82 78 71 69 66 64 64 68 73 77 77 78 82 85 87 88 89 90 90 90 87
244 245 241 235 241 245 222 212 225 234 233 225 220 219 220 219 214 209 209 206 203 208 206 202 206 204 205 202 196 192 178 185 181 171 200 203 184 188 186 180 184 188 195 194 195 198 199 200 189 187 182 177 184 171 156 138 115 104 103 104 100 96 92 91 88 77 70 69 66 63 63 65 71 77 79 80 83 87 86 86 86 86 87 88 88
244 239 236 231 235 244 243 232 236 240 232 222 219 217 220 220 216 212 212 211 207 208 207 205 209 209 207 203 207 205 184 190 187 172 197 208 189 190 190 187 196 202 202 203 207 205 202 202 197 200 198 190 196 193 181 165 150 130 113 114 114 106 100 95 89 79 76 78 72 65 64 67 77 83 83 82 85 88 87 85 84 84 87 89 90
247 238 234 233 232 231 236 238 241 241 230 222 221 216 218 221 220 215 213 214 211 208 206 207 209 210 207 205 213 211 192 194 188 181 196 198 194 200 196 190 192 195 198 208 217 209 200 196 194 194 197 199 197 193 186 171 165 162 141 125 116 114 120 104 94 90 86 89 92 81 72 81 90 92 88 83 85 90 92 91 89 89 90 90 90
258 246 237 236 234 232 234 235 238 235 228 226 224 218 216 222 223 219 219 218 213 210 208 208 206 206 205 206 212 210 203 198 188 191 200 195 197 200 199 199 197 192 195 207 214 207 201 198 197 188 181 187 186 182 178 169 163 170 181 176 147 131 132 115 105 117 111 109 115 98 84 97 105 102 95 86 85 92 96 96 96 97 96 94 90
265 251 240 237 236 237 234 233 236 229 223 224 223 221 221 224 223 220 222 220 214 209 207 208 206 205 204 207 212 211 214 205 191 199 203 198 198 195 197 202 201 196 196 205 210 207 206 201 197 186 173 168 165 165 169 165 166 177 189 195 186 172 152 133 124 130 131 128 124 108 98 112 121 118 109 93 89 97 101 99 98 98 98 96 92
262 254 245 241 237 234 230 234 238 229 225 225 223 223 225 230 228 225 228 226 219 211 206 206 206 208 206 211 218 213 216 213 198 203 203 198 198 194 198 200 199 202 201 205 211 208 205 198 190 183 175 164 153 153 158 156 158 177 189 196 196 186 173 155 140 135 138 137 125 113 114 125 133 132 121 108 101 104 106 104 101 99 96 93 91
258 255 248 244 239 235 234 238 239 235 235 233 228 223 222 230 232 231 233 231 225 215 207 206 204 206 209 218 226 217 218 220 208 207 204 199 199 195 199 199 197 205 205 203 209 208 203 196 188 184 182 170 157 159 163 157 157 171 187 195 194 183 175 159 143 141 144 138 125 119 128 136 142 143 135 123 114 113 111 108 105 101 96 93 92
258 254 252 248 242 240 240 242 241 241 244 243 236 226 220 224 228 232 233 230 229 217 208 212 209 208 212 219 226 219 223 225 213 210 205 200 199 194 197 199 197 204 203 197 201 206 205 198 188 183 178 171 167 169 161 160 175 184 189 190 184 174 167 155 145 149 145 132 128 134 143 146 147 147 141 131 124 121 116 111 108 103 99 99 99
256 253 256 253 245 245 245 245 245 244 245 245 243 235 224 224 229 233 232 230 231 222 215 218 215 210 208 212 218 214 221 225 215 208 203 203 203 199 200 200 201 203 195 191 195 198 196 194 191 177 161 163 169 167 159 162 182 187 180 173 164 158 157 153 152 154 142 133 142 145 148 149 148 147 141 136 133 127 118 115 113 108 106 106 105
255 251 257 255 247 250 251 248 247 247 245 244 244 242 233 229 233 235 232 230 231 228 225 221 216 216 211 211 214 211 214 218 211 202 199 202 202 202 205 200 205 206 192 191 194 191 187 190 197 180 162 167 171 168 172 181 189 181 175 168 159 156 157 157 157 155 145 148 155 152 153 152 150 149 145 142 137 128 122 119 116 113 112 110 108
258 249 254 256 251 253 256 254 250 245 245 244 244 244 239 235 236 235 232 229 228 230 233 228 225 228 221 212 213 216 220 216 205 201 200 202 199 200 206 202 205 206 192 192 194 188 186 189 194 184 178 178 170 177 189 182 177 175 177 178 169 165 165 163 161 158 156 157 159 159 161 158 155 153 149 145 137 129 126 123 121 119 116 114 112
261 254 255 257 255 253 254 256 253 248 246 245 245 242 239 238 239 238 234 232 230 228 232 236 235 233 224 217 218 223 226 210 197 198 198 203 203 199 205 205 205 205 194 193 194 186 184 192 194 186 187 183 170 181 190 175 175 177 181 186 187 184 175 170 168 162 162 163 165 168 167 161 156 153 149 143 137 133 130 127 125 123 121 118 115
260 258 259 257 256 254 251 253 253 253 253 250 247 243 240 239 240 240 237 236 235 230 233 239 240 236 229 225 226 227 229 213 199 197 194 199 206 204 205 203 202 203 196 195 195 187 184 193 197 190 189 184 173 173 175 183 189 185 185 189 194 196 183 176 174 167 167 168 169 171 166 160 152 151 148 142 138 136 134 131 129 128 126 123 116
261 261 264 264 263 260 256 253 249 251 255 253 250 247 243 242 241 240 238 236 235 233 236 237 234 236 235 232 229 226 230 228 211 202 193 193 200 206 205 199 201 204 198 196 196 191 189 192 195 194 190 184 178 171 170 193 202 192 193 196 195 198 190 181 177 170 171 171 171 168 161 156 152 151 147 142 141 140 138 136 134 133 131 125 119
264 261 263 268 269 264 259 255 250 249 253 253 252 249 245 243 241 241 241 238 237 237 237 234 229 234 240 237 232 226 225 229 220 213 205 198 199 203 200 195 203 206 199 197 196 196 197 191 190 195 194 185 180 173 176 200 213 201 199 201 198 197 192 184 178 172 172 171 169 164 159 155 153 152 148 145 145 143 142 140 139 138 134 128 123
269 264 262 266 267 265 261 258 255 253 253 252 252 250 245 242 240 240 243 241 239 238 237 234 231 234 240 238 235 228 221 219 218 217 212 207 205 204 198 194 201 204 197 195 195 197 199 194 188 193 199 192 179 176 186 202 215 209 203 201 198 196 192 186 179 174 174 173 170 165 161 159 157 154 150 149 149 148 147 146 144 142 137 132 127
271 268 265 265 264 264 263 261 257 254 253 252 252 248 243 243 241 240 245 244 241 239 238 237 234 235 239 237 234 229 222 220 219 215 211 208 206 203 199 197 202 204 200 196 195 197 198 196 191 193 203 198 181 181 189 194 204 207 203 200 198 194 191 188 181 177 176 173 171 168 165 164 162 158 155 153 154 154 153 152 150 147 142 137 131
273 270 267 266 266 267 265 263 261 257 254 253 251 248 244 245 246 244 244 245 242 240 238 237 234 235 235 234 235 231 225 225 224 218 215 212 205 200 200 199 200 203 203 198 195 197 199 197 194 193 201 196 184 187 190 195 207 209 203 199 197 194 192 189 183 179 179 176 173 172 171 170 166 163 161 160 160 160 160 158 156 154 149 144 137
271 271 270 268 267 268 267 266 265 261 256 252 249 247 244 244 246 245 243 243 242 239 238 238 235 234 233 235 240 237 229 229 228 221 217 214 207 202 204 204 201 198 201 201 197 198 201 200 197 195 198 192 187 193 194 203 215 210 204 201 197 196 194 191 185 182 182 178 176 176 175 174 172 168 168 168 168 168 166 165 162 159 156 150 143
270 271 272 271 268 268 268 266 263 259 254 250 247 246 244 243 245 244 241 241 240 237 237 238 235 233 234 238 240 236 232 233 231 223 215 213 207 204 204 204 201 195 197 200 198 198 200 200 198 196 197 192 190 195 195 205 216 204 203 204 198 199 198 193 188 184 185 181 178 180 179 178 177 174 175 176 177 175 171 169 165 163 160 154 147
280 278 273 271 271 269 267 265 262 259 256 251 248 248 246 242 244 244 240 238 236 234 234 234 233 231 232 237 238 234 232 230 227 222 216 212 209 208 203 198 196 193 194 198 198 201 201 199 199 197 197 192 191 197 195 204 216 204 201 205 200 202 202 196 191 186 187 185 180 182 183 184 182 180 183 183 183 181 175 173 169 167 165 157 149
284 283 276 270 269 266 264 264 261 257 258 257 252 250 248 243 242 243 239 234 230 230 231 229 229 229 230 235 238 237 235 228 224 223 219 215 211 210 206 201 196 190 192 196 198 204 202 198 197 196 197 191 190 199 197 203 216 206 200 205 203 205 206 199 195 189 188 187 183 184 185 188 187 185 188 187 186 185 180 176 173 171 170 163 156
282 283 280 273 269 267 263 262 260 257 258 259 255 249 246 242 240 240 238 233 228 228 229 225 225 227 228 232 235 237 239 234 228 225 220 216 212 211 211 209 200 190 193 197 198 201 199 196 196 194 196 191 189 199 198 204 217 206 199 207 206 206 208 203 197 192 191 189 186 185 185 189 191 188 191 190 189 188 183 180 178 177 176 171 167
283 283 281 278 276 274 267 262 261 259 258 257 255 252 246 241 237 237 236 234 231 230 227 222 222 225 227 231 233 233 236 235 233 228 218 214 215 214 214 214 206 198 199 201 201 202 196 195 197 194 195 191 190 198 197 204 216 204 199 208 209 208 209 206 201 195 194 193 190 189 187 189 192 191 193 193 191 191 189 187 185 184 183 181 180
286 286 285 282 280 276 271 265 258 257 257 256 256 256 251 244 239 236 234 233 231 228 225 222 224 226 227 231 231 230 234 233 232 229 218 214 216 213 212 215 212 208 208 203 201 200 196 197 197 194 195 191 191 195 194 204 213 205 201 206 208 211 210 207 205 198 197 197 194 193 189 190 194 194 196 197 197 196 195 195 193 191 191 191 192
286 287 284 281 278 276 273 268 262 260 262 260 258 257 253 248 244 239 233 232 230 226 225 226 227 228 229 232 230 228 233 233 229 229 222 216 216 213 210 211 212 212 210 204 200 199 198 198 196 196 198 192 193 194 190 203 214 207 202 203 205 211 212 211 208 202 200 201 200 199 195 193 196 198 200 201 202 202 202 202 201 200 200 200 202
277 281 279 274 273 274 274 270 266 266 267 264 258 255 254 251 248 241 233 231 229 226 227 229 229 232 235 238 235 229 233 235 229 228 226 220 218 218 215 211 212 216 215 210 209 208 206 200 194 201 204 193 192 195 190 202 215 207 197 201 210 213 213 213 212 206 203 203 203 204 202 199 199 202 205 206 207 208 208 209 208 207 207 208 210
267 272 277 277 275 275 274 270 266 265 264 262 256 253 255 255 249 240 232 229 227 224 226 226 230 236 239 237 231 227 232 235 230 228 228 222 218 220 219 212 211 217 216 211 208 207 207 201 194 201 203 193 192 196 192 200 215 213 196 197 213 217 215 217 216 211 208 206 207 208 209 207 205 205 208 211 213 214 214 214 214 212 213 215 218
267 267 273 278 277 277 275 272 270 266 261 259 258 256 258 257 248 236 230 229 226 224 226 229 235 240 238 233 228 229 233 232 228 227 225 222 220 221 221 216 212 213 212 209 207 204 201 200 201 201 198 196 196 196 195 199 210 213 198 195 208 213 212 215 216 214 213 210 211 213 214 214 212 212 213 214 218 219 220 220 219 219 221 223 227
269 267 271 278 277 276 278 279 278 274 267 263 261 257 256 255 246 234 229 230 230 230 231 238 245 242 236 234 232 232 232 227 224 225 224 221 219 222 223 218 215 214 212 212 212 206 196 195 204 205 198 198 199 196 198 200 201 203 198 196 202 204 206 208 209 215 220 218 219 221 221 220 219 218 218 218 221 223 224 225 225 226 228 232 236
278 271 272 279 280 277 279 283 281 276 270 263 256 252 250 247 240 233 231 232 233 235 236 243 248 242 236 236 234 231 229 224 220 221 223 219 216 221 224 219 218 219 217 215 212 208 203 196 197 203 199 196 198 199 201 199 197 198 196 198 202 202 205 206 205 215 225 227 229 228 226 227 226 224 224 223 224 226 227 229 230 232 234 238 242
290 282 275 277 281 282 280 281 281 276 271 265 255 247 244 242 239 238 237 236 235 237 240 245 247 241 232 231 232 230 228 226 223 221 222 221 219 222 225 221 221 222 220 219 214 209 209 200 194 199 199 195 199 204 201 196 196 197 195 198 203 203 205 206 207 216 226 230 233 231 228 228 229 229 229 228 228 230 231 231 234 236 238 241 245
294 288 279 273 277 283 284 281 279 274 271 269 258 244 238 239 241 241 239 239 238 239 245 250 250 244 237 234 235 236 231 228 227 224 224 226 227 228 226 222 223 223 220 222 219 211 207 203 199 198 200 200 201 203 201 197 196 197 195 196 200 202 205 206 205 213 226 233 236 235 232 232 235 235 235 236 234 234 235 236 237 239 241 244 248
303 290 282 275 274 281 286 283 280 276 274 272 263 249 243 244 246 245 242 241 241 242 247 252 252 252 249 244 243 239 232 231 232 231 230 230 231 231 227 222 223 226 223 221 220 213 207 209 205 197 197 201 200 198 199 197 197 197 196 197 199 201 203 206 207 211 222 233 239 239 234 232 237 238 236 237 237 237 237 238 239 241 243 246 249
318 302 288 281 279 281 286 285 281 281 280 277 269 259 256 255 251 246 244 245 245 245 248 249 250 253 252 247 241 237 236 239 241 240 237 235 235 235 232 226 225 228 225 218 216 213 209 212 209 196 194 198 198 196 197 197 198 198 196 197 200 202 203 206 210 211 215 224 233 239 237 234 236 238 238 238 238 239 239 239 239 239 241 245 249
329 315 297 286 282 281 284 283 280 281 284 281 274 265 260 255 252 250 248 248 248 248 248 247 247 250 249 246 244 243 244 244 243 242 241 241 240 238 235 229 225 227 223 214 213 213 209 212 211 201 198 199 199 199 199 199 201 200 199 200 201 203 205 207 212 214 215 217 221 226 234 238 240 241 240 240 240 238 237 237 238 240 243 248 253
347 333 316 301 292 286 283 282 280 279 279 277 271 264 257 250 250 255 256 251 249 250 249 246 244 243 243 244 247 247 246 244 241 241 241 241 241 239 236 229 224 228 227 218 215 214 209 209 209 203 201 203 203 202 203 204 204 202 201 204 205 205 207 210 214 214 211 211 216 220 226 232 237 237 234 238 241 238 237 238 241 244 247 250 255
7 358 344 328 316 304 293 288 290 286 279 275 267 257 254 252 250 253 253 251 253 255 251 245 241 240 242 244 245 242 242 243 242 240 239 240 240 236 232 227 223 225 227 221 217 215 211 210 211 208 207 208 207 205 204 203 205 205 205 208 210 210 211 215 220 219 215 212 212 215 220 223 224 222 218 225 233 230 229 237 245 249 252 257 263
14 14 8 357 346 332 316 305 305 301 288 280 270 255 250 253 253 250 248 248 252 256 255 250 243 242 243 244 241 237 237 240 240 238 239 240 238 232 228 225 222 222 225 224 221 219 215 216 219 219 218 215 212 210 206 204 206 208 209 212 215 214 213 216 220 225 231 222 209 208 217 219 216 214 211 217 231 231 228 233 242 249 255 261 266
9 15 16 13 7 359 347 335 323 312 295 281 275 263 251 248 250 251 249 247 248 251 255 252 246 246 246 244 243 241 239 239 239 240 242 241 239 236 231 226 222 223 227 228 226 224 221 222 226 228 227 224 221 219 219 218 218 217 215 216 217 218 220 218 218 225 234 226 207 204 214 218 213 211 212 219 232 236 234 234 237 242 249 257 263
0 6 13 16 15 11 4 358 347 333 315 294 279 271 262 252 248 251 253 250 248 248 250 249 248 250 250 247 249 249 246 243 240 239 242 242 239 237 234 230 226 225 227 227 227 227 226 225 227 228 227 226 222 221 223 224 223 220 219 219 216 218 220 218 218 224 229 223 212 206 210 217 212 207 215 227 232 230 227 227 230 235 248 263 270
359 359 3 9 14 16 12 7 2 355 343 326 303 284 275 266 256 255 257 254 248 244 244 245 246 249 249 248 250 249 245 242 237 235 236 235 233 234 232 227 223 223 226 228 228 229 228 226 226 226 227 228 226 225 227 226 221 218 218 214 210 212 216 212 212 216 218 217 216 210 208 218 216 207 210 225 226 219 215 220 234 249 263 275 280
1 0 359 359 5 11 14 13 9 4 358 350 336 311 289 277 266 260 260 256 249 244 243 241 242 246 249 249 249 244 237 233 231 231 229 223 222 225 222 216 216 222 226 228 228 229 230 229 228 229 230 231 231 231 231 225 221 221 219 215 212 213 210 202 203 207 208 216 222 219 215 218 216 206 200 199 200 207 222 234 257 275 280 283 286
360 0 0 358 356 359 5 10 12 10 7 2 355 340 315 294 277 266 264 258 249 246 246 240 236 240 245 244 245 245 239 231 228 233 231 223 220 219 215 211 213 220 226 227 225 224 224 224 226 228 230 231 231 232 231 225 220 224 227 227 226 226 219 212 207 204 209 221 227 223 213 197 185 192 199 204 211 232 260 264 272 281 285 292 294
3 1 1 1 1 0 358 1 8 11 11 9 4 356 342 322 298 279 272 264 251 247 248 241 230 229 236 236 235 236 232 225 230 239 241 235 228 225 222 216 213 218 226 225 219 216 218 218 220 222 224 227 229 232 233 230 225 228 232 231 230 229 226 223 218 207 207 217 219 210 202 192 187 197 209 219 230 246 264 272 279 284 288 294 298